Wind_Speed
41 42 44 45 45 46 46 44 42 40 38 36 34 32 30 31 32 33 33 33 33 33 32 32 31 31 30 29 28 28 27 27 27 27 27 27 27 27 27 27 27 27 28 28 28 27 27 27 27 27 27 27 27 27 27 26 25 25 24 24 23 23 23 23 22 21 20 18 17 16 15 15 14 14 14 14 14 14 15 15 15 16 16 17 17 17
34 36 38 40 41 41 40 39 37 36 34 32 31 31 31 33 34 34 33 33 33 32 32 31 31 30 29 28 28 28 27 27 27 27 27 27 27 27 27 28 28 28 28 28 28 27 27 27 27 27 27 27 27 27 26 26 25 24 24 24 24 24 23 23 22 20 19 18 17 16 15 15 15 15 14 14 14 15 15 15 16 17 17 17 18 18
27 30 33 34 34 34 34 33 32 31 30 30 31 32 33 34 34 34 34 33 33 32 31 31 30 29 28 28 28 28 28 27 27 27 27 27 28 28 28 28 28 28 28 28 28 27 27 27 27 27 27 27 27 26 26 25 24 24 24 24 24 24 23 22 21 20 18 17 16 16 16 15 15 15 15 15 15 15 16 16 17 17 18 18 19 19
21 24 26 27 28 28 28 28 28 28 28 30 32 33 34 34 34 34 33 33 32 32 31 30 29 29 28 28 28 28 28 28 28 28 28 28 28 28 28 28 28 28 28 28 28 27 27 27 27 27 27 27 26 26 25 25 24 24 24 24 24 24 23 22 21 19 18 17 16 16 16 16 16 16 15 15 16 16 16 17 17 18 19 19 19 20
20 21 22 23 24 25 26 26 27 27 28 30 32 34 35 35 34 34 33 33 32 31 30 30 29 28 28 28 29 29 28 28 28 28 28 28 28 28 28 28 28 28 28 28 27 27 27 27 27 27 27 26 26 25 25 24 24 24 24 24 24 24 23 21 20 19 18 17 16 16 16 16 16 16 16 16 16 17 17 17 18 19 19 20 20 20
26 26 26 26 26 26 26 26 26 27 28 30 31 33 34 35 35 34 34 33 32 31 30 29 29 28 28 29 29 29 29 28 28 28 29 29 29 29 29 28 28 28 28 28 27 27 27 27 27 27 26 26 26 25 25 24 24 24 24 24 24 23 22 21 20 18 17 17 16 16 16 16 16 16 16 17 17 17 18 18 19 19 20 20 21 21
33 33 32 32 31 30 29 29 28 29 30 31 32 33 34 35 36 35 35 34 33 32 31 30 29 29 29 30 30 30 29 29 29 29 29 29 29 29 29 28 28 28 28 28 27 27 27 27 27 26 26 26 25 25 25 24 24 24 24 24 24 23 22 20 19 18 17 17 17 17 17 17 17 17 17 17 18 18 18 19 20 20 21 21 21 21
37 37 37 37 36 35 34 33 33 33 34 35 35 36 36 36 37 36 36 35 34 33 31 30 30 30 30 31 31 30 30 29 29 29 29 29 29 29 29 28 28 28 28 27 27 27 27 27 26 26 26 25 25 25 25 24 24 25 24 24 23 22 21 20 19 18 17 17 17 17 17 17 17 17 17 18 18 19 19 20 20 21 21 22 22 22
38 38 39 39 39 39 38 38 38 38 38 38 38 38 38 37 37 37 36 36 34 33 32 31 31 31 31 31 31 31 30 30 30 30 30 29 29 29 29 28 28 28 28 27 27 27 27 26 26 26 25 25 25 25 25 25 25 25 24 24 23 22 20 19 18 18 17 17 17 17 17 17 17 18 18 18 19 19 20 20 21 21 22 22 22 23
38 38 38 39 39 39 40 40 40 40 40 40 39 39 38 38 37 37 36 36 35 34 32 32 31 31 31 31 31 31 30 30 30 30 30 30 29 29 29 28 28 28 28 27 27 27 26 26 26 25 25 25 25 25 25 25 25 24 24 23 22 21 20 19 18 18 17 17 17 17 18 18 18 18 18 19 19 20 20 21 21 22 22 23 23 23
37 38 38 38 38 39 39 40 40 40 40 40 39 39 38 37 37 36 36 35 34 33 32 31 31 31 31 31 31 31 30 30 30 30 30 30 29 29 29 28 28 28 28 27 27 27 26 26 26 25 25 25 25 25 25 25 25 24 24 23 22 21 20 19 18 18 18 18 18 18 18 18 18 19 19 19 20 20 21 21 22 22 23 23 23 24
37 37 37 38 38 38 39 39 39 39 39 39 38 38 37 37 36 36 35 34 33 32 31 31 31 31 31 31 31 31 31 31 31 30 30 30 29 29 29 28 28 28 27 27 27 26 26 26 25 25 25 25 25 25 25 25 24 24 23 22 21 20 20 19 18 18 18 18 18 18 18 19 19 19 20 20 20 21 21 22 22 23 23 23 24 24
37 37 37 37 38 38 38 38 38 38 38 38 37 37 36 35 35 35 34 33 32 32 31 31 31 31 31 31 31 31 31 31 31 30 30 30 29 29 29 28 28 27 27 27 26 26 26 26 25 25 25 25 25 25 25 25 24 23 23 22 21 20 20 19 19 18 18 18 18 19 19 19 20 20 20 21 21 21 22 22 22 23 23 24 24 24
36 36 36 37 37 37 37 37 37 37 37 36 36 35 35 34 34 34 33 33 32 32 32 32 31 31 31 31 31 31 31 31 31 30 30 30 29 29 29 28 28 27 27 26 26 26 26 26 25 25 25 25 25 25 25 24 24 23 22 22 21 20 20 19 19 19 19 19 19 19 20 20 20 21 21 21 21 22 22 22 23 23 24 24 24 25
36 35 36 36 36 36 36 36 36 36 35 35 35 35 35 34 34 33 33 33 32 32 32 32 32 31 31 32 32 31 31 31 31 30 30 30 29 29 29 28 28 27 27 26 26 26 26 26 26 25 25 25 25 25 24 24 23 23 22 22 21 20 20 19 19 19 19 19 19 20 20 20 21 21 21 22 22 22 22 23 23 23 24 24 24 25
35 35 35 35 35 35 35 35 35 35 35 35 35 35 34 34 33 33 33 33 33 32 32 32 32 32 32 32 32 31 31 31 31 30 30 30 30 29 29 28 28 27 27 26 26 26 26 26 26 26 25 25 25 24 24 24 23 23 22 22 21 20 20 20 19 19 19 20 20 20 21 21 21 22 22 22 22 23 23 23 23 24 24 24 25 25
35 35 35 35 35 34 34 34 34 35 34 34 34 34 34 34 33 33 33 33 33 33 32 32 32 32 32 32 32 31 31 31 31 30 30 30 30 29 29 28 28 27 26 26 26 26 26 26 26 25 25 25 25 24 24 23 23 22 22 21 21 21 20 20 20 20 20 20 21 21 21 21 22 22 22 22 23 23 23 23 24 24 24 24 25 25
35 35 35 35 34 34 34 34 34 34 34 34 34 34 34 34 34 34 34 34 33 33 33 33 33 33 33 32 32 31 31 31 31 31 30 30 30 29 28 28 28 27 26 26 26 26 26 26 25 25 25 25 24 24 23 23 23 22 22 21 21 21 20 20 20 20 20 21 21 21 21 22 22 22 22 23 23 23 23 24 24 24 24 24 25 25
36 35 35 35 35 34 34 34 34 34 34 34 34 34 34 34 34 34 34 34 34 33 33 33 33 33 33 32 32 32 31 32 31 31 30 30 29 29 28 28 27 27 26 26 26 26 26 26 26 25 25 25 24 24 23 23 22 22 22 22 21 21 21 21 21 21 21 21 21 22 22 22 22 23 23 23 23 23 24 24 24 24 24 25 25 25
36 36 35 35 35 35 35 35 34 34 34 35 35 35 35 35 35 35 35 34 34 34 34 34 34 33 33 32 32 32 32 32 32 31 30 29 29 29 28 27 27 27 26 26 26 26 26 26 25 25 25 24 24 24 23 23 22 22 22 22 21 21 21 21 21 21 21 21 22 22 22 22 23 23 23 23 23 24 24 24 24 24 25 25 25 26
36 36 36 36 35 35 35 35 35 35 35 35 35 35 36 35 35 35 35 34 34 34 34 34 34 33 32 32 32 32 32 32 31 31 30 29 29 28 28 27 27 27 26 26 26 26 26 26 25 25 25 24 24 24 23 23 23 22 22 22 21 21 21 21 21 21 21 22 22 22 22 22 23 23 23 23 24 24 24 24 24 24 25 25 25 26
36 36 36 35 35 35 36 35 35 35 36 36 36 36 36 36 35 35 35 35 35 35 35 35 34 32 32 32 32 32 32 32 31 30 29 28 28 28 27 27 27 27 26 26 26 26 26 26 25 25 24 24 24 24 23 23 23 22 22 22 22 21 21 21 21 21 22 22 22 22 22 23 23 23 23 23 24 24 24 24 24 25 25 25 26 26
36 36 36 35 35 35 35 35 35 36 36 36 36 36 36 36 36 36 36 35 35 35 35 34 33 32 31 32 32 32 32 31 31 30 28 28 28 28 27 27 27 27 26 26 26 26 26 25 25 25 24 24 24 24 23 23 23 22 22 22 22 21 21 21 21 22 22 22 22 22 22 23 23 23 23 23 24 24 24 24 25 25 25 26 26 27
36 36 36 36 35 35 35 35 36 36 36 36 36 36 36 36 36 36 36 36 36 35 34 33 32 32 31 32 32 32 32 31 30 29 28 27 27 27 27 27 27 27 27 26 26 26 26 25 25 25 25 25 24 24 24 23 23 22 22 22 22 22 21 21 21 22 22 22 22 22 22 23 23 23 23 23 24 24 24 24 25 25 26 26 27 27
36 36 36 36 36 36 36 36 36 36 36 36 36 36 36 36 36 36 35 35 35 34 33 33 32 32 32 32 32 32 32 30 29 28 27 27 26 27 27 27 27 27 27 26 26 25 25 25 25 24 24 25 25 24 24 23 23 22 22 22 22 22 22 21 22 22 22 22 22 22 22 23 23 23 23 23 24 24 24 25 25 25 26 26 27 27
36 36 36 36 36 36 36 36 36 36 36 36 36 36 35 35 35 35 34 34 34 33 32 32 32 31 31 31 31 31 31 29 28 28 27 27 26 26 27 27 27 27 27 26 26 25 25 25 25 24 24 25 25 24 24 23 23 23 22 22 22 22 22 22 21 22 22 22 22 22 22 22 23 23 23 23 24 24 24 25 25 26 26 26 27 27
38 37 37 37 36 36 36 36 36 36 35 35 35 35 34 34 34 33 33 33 32 31 31 31 31 30 30 30 30 30 29 29 28 28 28 27 26 26 27 27 27 27 27 26 26 25 25 25 25 24 24 25 25 24 24 24 23 23 22 22 22 22 22 22 21 21 21 21 22 22 22 22 22 23 23 23 24 24 24 25 25 26 26 26 27 27
39 39 39 38 38 38 38 37 37 36 36 35 34 34 34 33 33 33 33 32 31 30 30 30 29 28 28 28 29 29 29 28 29 28 28 27 27 27 27 27 27 27 27 26 26 25 25 25 25 24 24 25 25 25 24 24 23 23 22 22 22 22 21 21 21 21 21 21 21 21 22 22 22 22 23 23 24 24 24 25 25 26 26 26 27 27
41 41 40 40 40 40 39 39 38 38 37 36 35 35 34 34 33 33 33 32 31 30 31 30 29 28 28 28 28 29 29 29 29 28 28 27 27 27 27 26 27 28 27 27 26 26 25 25 25 25 25 25 25 25 24 24 23 23 22 22 22 21 21 21 21 21 21 21 21 21 21 22 22 22 23 23 24 24 24 25 25 26 26 26 27 27
42 42 41 41 41 41 40 40 40 39 39 38 37 37 36 35 35 34 34 33 32 31 31 30 29 28 28 28 28 29 29 29 29 28 28 28 28 27 26 27 28 28 27 26 26 26 26 25 25 25 25 25 25 25 24 24 23 23 22 22 21 21 21 21 20 20 20 21 21 21 21 22 22 22 23 23 24 24 24 25 25 26 26 26 26 27
42 42 41 41 41 40 40 40 40 40 39 39 39 38 38 37 36 35 34 33 32 31 31 30 29 28 28 28 28 29 29 29 29 28 28 28 28 28 26 26 28 28 27 26 26 26 26 25 25 25 26 26 25 24 24 23 23 23 22 21 21 21 21 20 20 20 21 21 21 21 22 22 22 23 23 23 24 24 25 25 25 26 26 26 26 27
41 41 41 40 40 39 39 39 39 39 39 39 38 38 38 37 35 34 33 32 31 30 30 29 28 28 28 28 28 28 28 28 29 29 29 29 29 28 26 26 27 28 27 26 26 26 26 25 25 25 26 25 25 24 23 23 22 22 22 21 21 21 20 20 20 21 21 21 22 22 22 23 23 23 23 24 24 24 25 25 25 26 26 26 26 27
41 40 40 39 39 38 38 37 37 37 37 37 37 37 36 35 34 33 32 31 30 30 29 28 28 27 27 28 28 28 28 28 29 29 29 29 29 28 26 26 27 27 27 26 26 26 26 25 25 25 25 25 24 24 23 22 22 22 21 21 21 21 20 20 21 21 22 22 22 22 23 23 23 23 24 24 24 24 25 25 26 26 26 27 27 27
40 40 39 39 38 38 37 37 36 36 35 35 35 34 34 33 32 31 30 30 29 29 28 27 27 27 27 27 27 27 27 28 29 29 29 29 29 28 26 26 27 27 27 26 26 26 26 26 25 25 24 24 24 23 23 22 22 21 21 21 21 21 21 21 21 21 22 22 23 23 23 23 24 24 24 24 24 25 25 26 26 27 27 27 27 27
40 39 39 38 38 37 36 36 35 34 33 33 32 32 31 30 30 29 29 28 28 27 27 27 27 27 27 27 27 27 27 28 29 29 29 29 29 28 27 26 26 27 26 26 26 26 25 25 25 24 24 24 23 23 22 22 22 22 21 21 21 21 21 21 22 22 23 23 23 24 24 24 24 24 24 24 25 25 26 26 27 27 28 28 28 28
39 39 39 38 37 36 35 34 33 32 31 31 30 30 29 28 28 28 27 27 26 26 26 26 26 27 27 27 26 27 27 28 28 29 29 29 28 28 27 27 27 26 26 27 26 26 25 25 24 24 23 23 23 23 22 22 22 22 22 21 21 21 22 22 22 23 23 24 24 24 24 24 25 25 25 25 25 26 27 27 28 28 28 29 29 29
39 39 38 37 35 34 33 32 31 30 29 29 28 28 27 27 27 27 26 26 26 26 26 26 26 26 26 26 26 27 27 28 28 29 29 29 28 27 27 27 27 26 26 27 26 26 25 25 24 24 23 23 22 22 22 21 22 22 22 22 22 22 22 23 23 23 24 24 25 25 25 25 25 25 26 26 26 27 28 28 29 29 29 30 30 31
38 37 36 35 33 32 31 29 29 28 28 28 27 27 27 27 26 26 26 26 26 26 26 26 26 26 26 26 26 26 27 28 28 29 29 29 28 27 27 27 27 26 26 27 26 25 25 24 24 23 23 22 22 22 21 21 21 21 22 22 22 22 23 23 24 24 24 25 25 25 25 25 26 26 26 27 27 28 28 29 29 30 30 31 31 32
37 36 34 33 31 30 29 28 28 28 28 28 28 27 27 27 27 26 26 26 26 26 26 26 26 26 26 26 26 26 27 28 28 29 29 29 28 28 28 27 27 27 26 26 26 25 24 24 23 23 22 22 22 21 21 21 21 21 22 22 22 23 23 24 24 25 25 25 25 25 26 26 26 26 27 27 28 28 29 29 30 30 31 31 32 32
35 34 33 32 30 30 29 29 28 28 28 29 28 28 28 27 27 27 27 26 26 26 26 26 26 26 26 26 26 27 27 27 28 28 29 29 28 28 28 28 27 27 26 26 26 25 24 23 23 22 22 22 21 21 20 20 21 21 21 22 22 23 23 23 24 25 25 25 25 25 26 26 26 26 27 27 28 28 29 29 30 31 31 31 31 31
34 33 32 31 31 30 30 30 30 29 29 29 29 28 28 28 28 27 27 27 26 26 26 26 26 26 27 27 27 27 27 27 28 28 29 29 28 28 28 28 27 27 26 25 25 24 24 23 22 22 21 21 21 20 20 20 21 21 21 22 22 23 23 23 24 25 25 25 25 25 25 26 26 26 27 27 28 28 29 29 30 30 31 31 31 31
32 32 31 31 31 31 31 30 30 30 29 29 29 28 28 27 27 27 27 27 26 26 26 26 26 27 27 27 27 27 27 27 28 28 29 29 28 28 28 28 27 26 25 25 24 24 23 22 22 21 21 20 20 20 20 20 21 21 21 22 22 23 23 24 24 25 25 25 25 25 25 25 26 26 26 27 28 28 29 29 30 30 30 31 31 30
30 30 30 30 30 30 30 30 29 29 29 28 28 28 27 27 26 26 26 26 26 26 26 26 26 27 27 27 27 27 27 27 28 28 28 28 28 28 28 27 26 26 25 24 24 23 22 22 21 21 20 20 19 19 20 20 21 21 22 22 22 22 23 24 24 25 25 25 25 25 25 25 26 26 26 27 27 28 29 29 29 30 30 30 30 30
28 28 29 29 29 29 29 29 28 28 27 27 27 27 26 25 25 25 25 25 25 25 25 26 26 27 27 27 27 27 27 27 28 28 28 28 28 27 27 26 26 25 24 24 23 22 22 21 21 21 20 19 19 19 20 20 21 22 22 22 23 23 23 24 24 24 25 25 25 25 25 25 26 26 26 27 27 28 28 29 29 29 29 29 29 30
26 26 27 27 28 28 28 28 28 27 27 27 26 26 25 24 24 24 24 24 24 24 25 25 26 26 27 27 27 27 27 27 27 27 27 27 27 27 26 26 25 24 24 23 23 22 21 21 20 20 20 19 19 19 20 20 21 22 22 23 23 23 24 24 24 24 25 25 25 25 25 26 26 26 26 26 27 27 28 28 28 28 29 29 29 29
24 24 24 25 26 26 27 27 27 27 27 27 26 26 25 24 24 24 24 24 24 24 25 25 25 26 27 27 27 26 26 27 27 27 27 26 26 26 26 25 25 24 23 23 22 22 21 21 20 20 19 19 19 20 20 21 21 22 22 23 23 23 24 24 24 24 25 25 25 25 25 26 26 26 26 26 26 26 27 27 27 28 28 28 28 29
22 22 22 23 24 24 25 26 26 27 27 27 26 26 25 25 24 25 25 25 25 25 25 25 25 26 27 26 26 26 26 26 26 26 26 26 26 25 25 25 24 23 23 22 22 21 20 20 20 19 19 19 19 20 20 21 21 22 22 22 23 23 24 24 24 24 25 25 25 25 25 26 26 26 26 26 25 25 26 26 27 27 28 28 28 29
21 21 21 21 22 23 24 25 25 26 26 26 26 25 25 25 25 25 25 25 25 25 25 25 26 26 27 27 26 26 26 26 26 26 26 26 25 25 25 24 24 23 23 22 21 21 20 20 19 19 19 19 19 20 20 21 21 22 22 22 22 23 23 24 24 24 24 25 25 25 25 26 26 26 26 25 25 24 25 25 26 27 27 28 28 28
21 21 21 21 21 22 22 23 23 24 24 24 24 24 24 25 25 25 26 26 26 26 26 26 26 27 27 27 26 26 26 26 26 26 26 26 25 25 24 24 23 23 22 21 21 20 20 19 19 19 19 19 19 20 20 21 21 21 22 22 22 23 23 24 24 24 24 24 25 25 26 26 26 26 25 25 24 24 24 24 26 27 27 28 28 28
22 22 22 22 21 21 22 22 22 22 23 23 23 23 24 25 25 26 26 26 26 26 26 26 27 27 27 27 27 26 26 26 26 26 26 26 25 25 24 23 23 22 22 21 20 20 19 19 19 19 19 20 20 20 20 20 21 21 22 22 22 22 23 23 23 24 24 24 25 25 26 26 26 26 25 25 24 23 23 24 25 26 27 28 28 28
23 23 22 22 22 22 22 22 22 22 22 23 23 24 25 25 26 26 27 27 26 26 26 27 27 27 27 27 27 27 26 26 26 26 26 25 25 25 24 23 22 22 21 20 20 19 19 19 19 19 19 20 20 20 20 20 20 21 21 22 22 22 22 23 23 23 24 24 25 25 26 26 26 26 25 25 24 24 23 23 24 26 27 27 28 28
Wind_Direction
244 244 244 244 243 241 237 234 229 225 223 222 223 229 238 249 256 259 260 260 261 261 261 261 261 261 261 261 261 261 262 263 264 266 268 269 271 272 274 275 277 279 281 283 286 288 290 292 293 294 295 295 295 295 294 293 291 290 288 286 284 283 282 281 281 280 280 281 283 284 286 287 288 290 292 294 297 299 301 303 304 305 306 307 308 309
238 236 235 234 233 231 229 227 224 223 225 228 232 239 248 254 258 259 259 259 259 259 260 260 260 260 261 261 261 261 262 263 265 266 268 269 271 272 274 276 278 280 282 284 286 288 290 291 293 293 294 294 293 293 291 290 289 287 285 283 282 281 281 280 280 279 280 281 282 284 285 286 287 289 291 294 296 299 301 303 304 304 305 306 307 308
229 226 225 225 223 222 222 222 223 225 231 237 243 249 253 256 257 258 258 258 258 258 258 259 259 260 260 260 261 261 262 263 265 266 268 269 271 272 274 276 278 280 282 284 286 288 290 291 292 292 292 292 291 290 289 288 286 284 283 282 281 280 279 279 278 279 279 280 281 283 284 285 287 289 291 294 296 299 301 302 303 304 305 305 306 307
224 221 221 221 220 220 222 224 228 233 240 247 252 255 256 257 257 257 257 258 258 258 258 258 258 258 259 259 260 260 261 263 264 266 267 269 271 272 274 276 278 280 282 285 286 288 289 290 291 291 291 290 289 288 287 285 284 282 281 280 279 279 278 278 277 278 278 280 281 282 283 285 287 289 291 294 297 298 300 301 302 303 304 305 306 306
226 226 227 227 227 227 227 230 234 239 245 251 255 257 258 258 258 258 258 258 258 258 258 258 258 258 258 258 258 259 261 262 264 265 267 269 270 272 274 276 278 280 282 284 286 287 288 289 289 289 289 288 287 286 284 283 281 280 279 278 278 277 277 276 276 277 278 279 280 281 283 285 287 289 292 294 297 298 300 301 302 302 303 304 305 306
232 233 234 234 234 234 234 235 237 241 245 249 253 256 257 258 259 258 258 258 258 258 258 258 258 257 257 257 258 259 260 262 263 265 266 268 270 272 274 276 278 280 282 284 285 287 287 288 288 287 287 286 285 284 282 281 279 278 278 277 277 276 275 275 275 276 277 278 279 281 282 285 287 289 292 294 296 298 299 300 301 302 302 303 304 304
238 238 238 239 238 238 237 238 239 241 244 247 249 252 253 255 256 256 256 256 257 257 257 257 257 256 256 257 257 258 260 261 263 264 266 268 270 272 274 276 278 280 282 283 285 285 286 286 286 286 285 284 283 281 280 279 278 277 277 276 275 275 274 274 274 275 276 277 279 280 282 284 287 289 292 294 296 297 298 299 300 301 301 302 303 303
242 242 241 241 241 241 240 240 240 241 243 245 247 248 249 250 251 252 252 252 253 253 253 253 253 253 254 255 256 257 259 260 262 264 265 267 269 271 274 276 278 280 281 283 283 284 284 284 284 284 283 282 281 279 278 277 277 276 275 275 274 273 273 273 273 274 275 277 278 280 282 285 287 289 292 294 295 296 297 298 299 300 301 301 302 302
244 244 243 243 243 242 242 242 242 243 243 244 245 246 246 247 247 248 248 248 249 249 249 249 249 250 251 253 255 256 258 259 261 263 265 267 269 271 274 276 278 279 281 282 282 283 283 283 282 282 281 280 278 277 277 276 276 275 274 274 273 272 272 272 272 273 275 276 278 280 282 284 287 289 291 293 294 296 296 297 298 299 300 300 301 301
243 243 243 243 242 242 242 243 243 243 243 244 244 244 244 245 245 245 246 246 246 246 247 247 247 248 250 252 254 256 257 259 261 263 265 267 269 271 273 276 277 279 280 280 281 281 281 281 280 279 278 277 276 276 275 275 274 274 273 272 271 271 271 271 272 273 274 276 278 280 282 284 286 288 290 292 293 294 295 296 297 298 299 299 300 300
241 242 241 241 241 241 241 241 242 242 242 243 243 243 243 243 244 244 245 245 246 246 246 246 247 248 250 252 254 255 257 259 261 263 265 267 269 271 273 275 277 278 278 279 279 279 279 278 278 277 276 275 274 274 274 274 273 273 272 271 270 269 269 270 271 272 274 276 278 280 282 284 286 288 289 291 292 293 294 295 296 297 297 298 298 299
238 239 239 239 239 239 240 240 240 241 241 242 242 242 243 243 244 245 245 246 247 247 247 248 248 249 250 252 254 256 257 259 261 263 265 268 270 271 273 275 276 276 277 277 277 277 277 276 276 275 274 273 273 273 273 272 272 271 271 270 269 269 269 269 270 272 274 276 278 280 282 284 285 287 288 290 291 292 293 294 295 295 296 297 297 297
236 236 237 237 238 238 239 239 240 240 241 242 242 243 244 244 245 245 246 247 247 248 249 249 249 250 251 253 254 256 258 260 262 264 266 268 270 272 273 274 275 275 275 276 275 275 275 274 273 273 272 272 272 272 272 271 271 270 269 268 268 268 268 269 270 272 274 276 278 280 282 283 285 287 288 289 290 291 292 293 293 294 295 295 296 296
235 235 235 236 237 237 238 239 240 240 241 242 243 244 245 245 245 246 246 247 247 247 248 249 250 251 252 254 255 257 259 261 263 265 267 269 270 271 272 273 273 274 274 274 274 273 273 272 272 271 271 270 270 271 271 270 269 269 267 267 267 267 268 269 271 272 274 276 278 279 281 283 284 286 287 288 289 290 291 292 292 293 294 294 295 295
235 234 235 235 236 237 238 239 240 240 241 242 242 243 243 244 244 245 246 246 247 247 248 249 250 251 253 254 256 258 260 262 263 265 267 268 269 270 271 271 272 272 272 272 272 271 271 270 270 270 270 270 270 270 269 269 268 267 266 266 266 267 268 269 271 272 274 276 278 279 281 282 284 285 286 287 288 289 290 291 291 292 293 293 294 294
235 234 235 235 236 237 237 238 240 240 240 241 241 242 243 243 244 245 245 246 247 247 248 249 250 252 253 254 256 258 261 262 263 265 266 267 268 269 269 270 270 270 270 270 270 269 269 269 269 269 269 269 269 269 268 267 267 266 265 265 266 267 268 269 271 272 274 276 277 279 280 282 283 284 285 286 287 288 289 290 290 291 292 292 293 294
235 234 234 235 235 236 236 238 239 239 240 240 241 241 242 243 243 244 245 246 246 247 248 249 251 252 253 255 256 258 260 262 263 263 264 265 266 267 267 267 267 267 268 268 268 268 267 267 267 268 268 268 268 268 267 266 265 265 265 265 266 267 268 269 271 272 274 275 277 278 280 281 283 284 285 286 287 287 288 289 290 290 291 292 293 293
235 234 234 234 235 235 236 237 238 239 240 240 241 241 242 242 243 244 244 245 246 247 248 249 251 252 254 255 257 258 259 261 261 262 262 263 264 265 266 266 266 266 266 266 266 266 266 266 266 267 267 267 267 267 266 265 264 264 264 265 265 266 268 269 271 272 274 275 276 278 279 281 282 283 284 285 286 287 287 288 289 290 290 291 292 293
235 234 234 234 234 234 235 236 237 239 240 240 241 241 242 242 243 243 244 245 246 248 249 250 251 252 253 255 256 257 258 259 259 260 260 261 262 263 264 264 264 264 264 264 264 265 265 265 266 266 267 267 266 265 265 264 263 263 263 264 265 266 268 269 270 272 273 275 276 277 279 280 281 282 283 284 285 286 287 287 288 289 290 291 292 293
235 234 234 234 234 234 234 235 236 238 239 240 240 241 242 242 243 244 244 246 247 248 249 250 251 252 253 255 256 257 257 258 258 259 259 260 261 262 262 263 263 263 263 263 264 264 265 265 266 266 266 266 265 265 264 263 262 262 263 264 265 266 267 268 270 271 273 274 275 277 278 279 280 281 282 283 284 285 286 287 288 289 289 290 291 292
236 235 235 234 234 234 235 235 235 236 237 238 239 240 241 242 243 244 245 246 247 248 249 250 251 252 253 255 256 256 257 257 257 258 258 259 259 260 261 261 261 261 262 262 263 264 264 265 265 266 265 265 264 263 263 262 262 262 262 263 264 265 267 268 269 271 272 273 274 276 277 278 279 280 281 282 283 284 285 286 287 288 289 290 291 292
238 237 237 236 236 236 236 236 236 236 237 238 239 240 241 242 243 244 245 246 247 247 248 249 250 251 252 253 254 255 256 256 256 257 258 258 258 259 260 261 261 260 261 262 263 264 264 265 265 265 265 264 263 262 262 261 261 261 262 263 264 265 266 267 269 270 271 272 273 275 276 277 278 279 280 281 282 283 284 285 286 287 289 290 290 291
240 240 239 238 238 239 239 239 238 238 239 239 240 241 241 242 243 243 244 245 245 246 247 248 249 250 250 251 252 254 255 256 256 257 257 256 257 258 260 260 260 260 260 261 262 263 264 264 264 264 263 263 262 261 261 261 261 261 262 262 263 264 265 267 268 269 270 271 272 274 275 276 277 278 279 280 281 282 283 285 286 287 288 289 290 290
242 242 241 241 240 241 241 241 241 241 241 241 241 242 242 242 243 244 244 245 245 246 248 248 248 248 249 250 252 253 255 256 257 257 257 256 256 257 259 259 259 260 260 261 262 263 263 263 263 263 262 261 261 260 260 260 260 260 261 262 263 264 264 265 266 268 269 270 271 272 274 275 276 277 278 279 280 281 283 284 285 287 288 289 289 290
244 243 243 242 242 242 242 242 242 242 242 242 243 243 244 244 245 245 246 247 247 248 249 249 249 248 249 250 252 254 255 256 257 257 256 256 256 257 258 258 259 259 260 261 261 262 262 262 261 261 261 260 260 259 259 259 259 260 260 261 261 262 263 264 265 266 268 269 270 271 272 274 275 276 277 278 280 281 282 284 285 287 287 288 289 289
244 244 244 244 243 243 243 243 243 243 243 243 244 244 245 245 246 246 247 248 249 249 250 250 249 249 250 251 253 254 256 256 257 256 256 255 255 256 257 258 258 259 260 260 260 260 260 260 260 259 259 259 259 258 258 258 258 259 259 260 260 261 262 263 264 265 267 268 269 270 272 273 274 275 277 278 279 281 282 284 285 286 287 288 288 289
244 244 244 244 244 244 244 244 244 244 244 245 245 245 246 246 246 247 248 249 249 250 250 250 250 250 251 252 253 255 255 256 256 256 256 255 255 255 256 257 258 259 259 259 259 258 258 258 258 257 257 257 257 257 257 257 257 257 258 258 259 260 261 262 263 265 266 267 269 270 271 273 274 275 277 278 280 281 282 284 285 286 287 287 288 289
243 243 244 244 244 244 245 245 245 245 245 245 246 246 246 246 246 248 248 249 249 250 250 250 250 250 251 252 253 254 255 255 256 256 256 256 255 255 256 257 257 258 258 258 258 257 256 256 255 255 254 254 255 255 255 255 255 255 256 257 258 259 260 262 263 265 266 267 269 270 272 273 274 276 277 279 280 282 283 284 285 286 287 287 288 289
242 242 243 244 244 245 245 245 245 245 245 246 246 246 247 247 247 248 248 248 249 249 250 250 250 251 251 252 253 254 255 255 255 256 256 256 255 254 255 256 256 257 257 257 257 256 254 254 253 253 252 252 252 253 253 254 254 255 255 257 258 259 261 262 264 265 267 268 270 271 272 274 275 277 278 280 281 282 283 284 285 286 287 287 288 289
241 242 243 244 245 245 245 246 246 246 246 246 247 248 249 249 249 249 249 249 249 249 250 251 251 251 251 252 252 253 254 255 255 256 256 255 254 254 254 255 255 256 256 256 256 255 253 252 251 251 251 250 250 251 252 253 254 255 256 257 259 260 262 263 265 267 268 269 271 272 274 275 276 278 279 280 282 283 284 285 285 286 287 287 288 288
241 242 243 244 244 245 246 246 246 246 246 247 248 249 250 251 251 251 251 251 250 250 250 251 251 251 251 251 251 252 253 254 255 255 255 254 254 253 253 254 255 255 255 254 254 254 253 251 250 249 250 250 250 250 251 252 254 256 257 259 260 261 263 265 267 268 270 271 272 274 275 277 278 279 280 281 283 284 284 285 286 286 287 287 288 288
241 242 242 243 243 244 244 245 245 246 246 247 248 249 250 251 252 252 251 251 250 249 249 249 249 249 249 250 250 251 252 253 254 254 254 254 254 254 253 253 254 255 255 253 253 253 252 251 250 249 250 251 251 251 252 253 255 257 259 260 261 263 264 266 268 270 271 273 274 275 276 278 279 280 282 283 284 285 285 286 286 287 287 287 288 288
240 241 241 241 241 241 241 242 243 243 244 245 246 247 249 249 250 250 249 249 248 248 247 247 247 247 247 248 249 250 251 252 253 253 253 254 254 254 253 253 254 254 254 253 252 251 251 251 250 250 250 251 253 253 254 254 255 257 259 261 262 264 266 268 269 271 273 274 276 277 278 279 281 282 283 284 285 286 287 287 287 288 288 288 288 289
238 238 238 238 238 238 238 239 239 240 241 242 243 244 245 246 246 247 247 247 247 246 246 246 245 246 246 247 248 250 251 252 253 253 253 254 255 255 254 253 253 253 253 252 251 250 250 250 250 250 251 252 253 255 256 257 257 258 260 261 264 266 268 269 271 272 274 276 277 278 280 281 282 284 285 286 287 288 288 289 289 289 290 290 291 291
235 235 235 235 235 235 236 236 237 237 238 239 240 241 241 242 243 243 243 244 244 244 244 244 245 245 246 247 248 250 252 252 253 253 254 254 254 254 254 253 252 252 252 251 250 249 249 249 249 250 250 252 253 255 256 258 259 260 261 263 264 267 269 271 272 274 275 277 278 280 281 283 284 286 287 289 290 290 291 292 292 292 293 293 294 295
232 232 233 233 233 233 234 234 235 235 236 237 237 238 238 238 239 240 240 241 242 242 243 244 244 245 246 247 248 250 251 252 253 254 254 254 254 254 253 252 251 250 250 249 248 247 247 247 248 249 249 251 253 255 256 258 260 262 263 265 266 268 270 271 274 275 277 279 280 282 284 286 288 289 291 292 293 294 295 295 296 296 297 297 298 299
230 231 231 231 231 232 232 233 233 233 234 235 235 235 235 235 236 236 237 238 239 241 242 243 244 245 246 247 248 249 250 252 253 253 254 254 254 253 252 251 250 249 248 248 247 246 246 246 247 248 248 250 252 254 256 258 260 263 265 267 269 270 272 274 276 278 280 282 283 286 288 290 292 294 295 296 297 298 298 298 299 300 300 301 302 303
230 230 230 230 230 230 230 230 230 231 231 232 232 232 232 232 233 234 235 236 238 239 241 243 244 246 247 248 248 249 250 251 252 253 253 254 253 253 251 250 249 248 247 246 246 245 244 245 245 246 247 249 251 253 255 258 261 264 267 269 272 274 276 278 280 282 283 285 287 289 291 293 295 297 298 299 300 300 301 301 301 302 303 304 304 305
231 230 229 228 228 228 227 227 228 229 229 229 229 230 230 230 231 232 233 235 236 238 240 242 244 246 247 248 248 249 250 251 251 252 253 253 252 252 250 249 248 246 245 245 245 244 244 243 244 245 246 248 250 252 255 257 261 264 267 270 273 276 278 281 283 284 286 288 290 292 294 295 297 298 299 300 301 301 301 302 302 303 303 304 305 306
230 229 228 226 226 225 225 225 226 226 227 227 227 227 228 228 230 231 232 234 236 238 240 242 244 246 247 248 248 249 249 250 250 251 251 251 251 250 249 248 246 245 244 243 243 243 243 242 243 243 245 247 249 252 254 257 260 263 267 270 273 275 278 281 283 285 286 288 290 292 294 296 297 298 299 299 300 300 301 301 302 302 303 303 304 304
230 228 227 225 225 224 224 224 224 224 225 225 226 227 227 228 230 231 233 234 236 238 240 242 244 245 246 247 248 248 248 249 249 250 250 250 249 248 247 246 245 243 242 241 241 241 241 241 242 242 244 245 248 251 254 257 260 263 266 269 272 274 277 279 281 283 285 287 289 291 293 294 295 296 297 298 298 299 299 300 300 301 301 302 302 302
231 229 227 225 224 224 224 223 223 224 224 225 226 227 228 228 230 232 234 236 237 239 240 242 244 245 246 247 247 247 247 247 248 248 248 248 247 246 245 244 243 242 240 240 239 240 240 240 241 242 243 245 247 250 254 257 260 262 265 268 270 273 275 277 279 281 283 285 287 289 291 292 293 294 295 296 297 297 298 298 299 299 300 300 301 301
233 231 229 227 226 225 224 224 224 224 225 226 227 228 229 230 231 233 235 237 239 240 241 243 244 245 246 247 247 247 246 246 246 246 246 246 245 245 244 243 241 240 239 238 238 238 239 240 241 242 243 245 247 250 254 257 260 263 265 267 270 272 274 276 278 281 283 285 286 288 289 291 291 292 293 294 295 296 297 297 298 298 299 299 300 300
235 233 232 230 229 227 226 225 225 225 226 226 228 229 230 231 232 234 237 239 240 241 243 244 245 246 246 247 247 246 246 246 246 245 245 245 244 243 242 241 240 239 238 238 238 238 238 239 241 242 244 246 248 250 253 257 260 263 265 267 270 271 273 275 278 280 282 284 285 287 288 289 290 291 292 293 294 295 296 296 297 297 298 299 299 300
235 235 234 233 231 230 228 227 226 226 226 227 228 229 231 232 233 235 238 240 242 243 244 245 246 247 247 248 248 247 247 246 246 245 245 244 243 242 241 240 239 238 237 237 238 238 238 239 240 242 245 247 249 251 253 257 260 263 265 268 270 272 273 275 278 280 281 283 285 286 287 288 289 290 291 293 294 295 295 296 296 297 297 298 299 299
235 235 235 234 233 232 230 229 228 227 227 227 228 229 231 232 234 236 239 241 243 245 246 247 248 248 249 249 249 249 248 247 246 246 245 243 242 241 240 239 238 237 237 237 237 238 238 239 241 242 245 247 249 252 254 257 260 262 265 268 270 272 274 276 278 280 281 283 285 286 287 288 289 290 292 293 294 295 296 296 296 297 297 298 299 300
235 234 234 234 234 233 232 231 230 228 228 227 228 229 231 232 234 237 239 241 244 246 247 248 249 250 251 251 251 250 249 249 248 246 245 243 242 240 239 238 237 237 236 236 236 237 238 239 241 243 244 247 249 252 255 258 260 262 265 268 270 273 275 277 279 281 282 283 285 286 287 288 289 291 292 293 294 295 296 296 297 297 298 299 300 300
235 234 233 233 233 233 233 232 231 230 229 228 228 230 231 233 235 238 240 242 244 246 248 250 251 252 253 253 252 252 251 250 248 247 245 243 241 240 238 238 237 236 235 235 235 236 237 238 240 242 244 247 249 252 255 258 261 264 266 269 271 273 275 277 279 281 283 284 285 286 288 289 290 292 293 294 295 296 297 297 298 298 299 300 301 302
237 235 234 233 232 232 233 233 232 232 231 230 231 231 233 235 237 239 242 243 245 246 248 250 251 253 253 254 253 252 251 250 249 247 245 243 241 239 238 237 236 235 234 234 234 234 236 238 240 242 245 248 250 253 256 259 262 265 267 270 272 274 276 277 279 281 283 284 286 287 289 290 292 293 294 295 296 297 297 298 299 300 300 302 303 303
241 238 236 234 233 233 233 234 234 234 235 235 235 236 237 238 240 242 243 245 246 247 249 250 251 253 254 254 253 252 251 249 248 246 245 243 241 239 237 236 234 234 233 233 233 234 236 238 240 243 246 249 251 254 257 260 263 266 268 271 272 274 276 278 280 282 284 286 287 289 291 292 293 294 295 296 297 298 299 300 301 301 302 303 304 304
244 241 239 237 235 235 235 235 235 236 238 238 239 240 241 242 243 244 245 246 247 248 249 251 252 253 253 253 253 251 250 248 246 245 243 242 241 239 237 235 234 232 232 232 233 234 236 239 241 244 248 250 253 256 258 261 264 266 269 271 273 275 277 279 281 284 286 287 289 291 293 294 295 296 297 298 299 300 301 302 303 303 303 304 305 305
Height
3097 3098 3100 3101 3102 3103 3103 3105 3106 3108 3109 3111 3112 3113 3115 3116 3117 3118 3119 3119 3120 3121 3121 3122 3122 3123 3123 3123 3123 3123 3123 3123 3124 3124 3124 3124 3124 3125 3125 3125 3125 3124 3124 3124 3124 3123 3123 3122 3122 3122 3121 3121 3120 3120 3120 3120 3119 3119 3119 3119 3119 3119 3119 3119 3119 3118 3118 3118 3117 3116 3116 3116 3116 3115 3115 3115 3115 3114 3114 3113 3113 3113 3113 3113 3112 3112
3094 3096 3097 3098 3099 3100 3101 3103 3104 3106 3108 3109 3111 3112 3113 3114 3115 3116 3117 3117 3118 3119 3119 3120 3120 3120 3120 3120 3121 3121 3121 3122 3122 3122 3122 3122 3123 3123 3123 3123 3123 3122 3122 3122 3122 3121 3121 3120 3120 3119 3119 3119 3118 3118 3118 3118 3118 3118 3118 3118 3118 3118 3118 3118 3117 3117 3116 3115 3115 3114 3114 3114 3114 3114 3113 3113 3113 3113 3112 3112 3112 3112 3111 3111 3111 3110
3093 3094 3095 3096 3097 3098 3099 3101 3102 3104 3106 3107 3109 3110 3111 3112 3113 3113 3114 3115 3116 3117 3117 3118 3118 3118 3118 3118 3118 3119 3119 3119 3120 3120 3120 3120 3120 3120 3120 3120 3120 3120 3120 3120 3119 3119 3119 3118 3118 3118 3117 3117 3117 3117 3116 3116 3116 3116 3116 3116 3116 3116 3116 3116 3115 3115 3114 3113 3113 3113 3113 3113 3112 3112 3112 3112 3111 3111 3111 3111 3110 3110 3110 3110 3109 3109
3093 3094 3094 3095 3096 3097 3098 3099 3100 3102 3103 3105 3106 3108 3108 3109 3110 3111 3112 3113 3113 3114 3115 3116 3116 3116 3116 3116 3117 3117 3117 3118 3118 3118 3118 3118 3118 3118 3118 3118 3118 3118 3118 3118 3117 3117 3117 3116 3116 3116 3115 3115 3115 3115 3114 3114 3114 3114 3114 3114 3114 3114 3114 3114 3113 3113 3112 3112 3111 3111 3111 3111 3111 3110 3110 3110 3110 3109 3109 3109 3109 3109 3108 3108 3108 3107
3094 3094 3095 3096 3096 3097 3098 3098 3098 3099 3101 3102 3103 3105 3106 3107 3107 3108 3109 3110 3111 3112 3113 3113 3114 3114 3114 3114 3114 3115 3115 3115 3116 3116 3116 3116 3116 3116 3116 3116 3116 3116 3116 3115 3115 3115 3114 3114 3114 3114 3113 3113 3113 3113 3113 3113 3113 3113 3113 3113 3113 3113 3112 3112 3111 3111 3110 3110 3109 3109 3109 3109 3109 3109 3108 3108 3108 3108 3108 3108 3107 3107 3107 3107 3106 3106
3093 3093 3094 3095 3096 3096 3097 3097 3098 3098 3099 3100 3101 3102 3103 3104 3105 3106 3107 3108 3109 3110 3111 3111 3112 3112 3112 3112 3112 3112 3113 3113 3114 3114 3114 3114 3114 3114 3114 3114 3113 3113 3113 3113 3113 3113 3112 3112 3112 3112 3111 3111 3111 3111 3111 3111 3111 3111 3111 3111 3111 3110 3110 3110 3109 3108 3108 3108 3108 3108 3108 3108 3107 3107 3107 3107 3106 3106 3106 3106 3106 3106 3105 3105 3105 3104
3091 3091 3092 3093 3093 3094 3095 3096 3096 3097 3098 3098 3099 3100 3101 3102 3103 3104 3105 3106 3107 3108 3109 3109 3109 3109 3109 3109 3109 3110 3111 3111 3112 3112 3112 3112 3112 3112 3112 3111 3111 3111 3111 3111 3111 3110 3110 3110 3110 3109 3109 3109 3109 3109 3109 3109 3109 3109 3109 3109 3109 3108 3108 3108 3107 3107 3106 3106 3106 3106 3106 3106 3106 3105 3105 3105 3105 3104 3104 3104 3104 3104 3103 3103 3103 3103
3088 3088 3089 3090 3091 3092 3093 3093 3094 3095 3095 3096 3097 3098 3099 3100 3101 3102 3103 3104 3105 3106 3107 3108 3108 3108 3107 3107 3107 3108 3108 3109 3109 3109 3109 3109 3109 3109 3109 3109 3109 3109 3108 3108 3108 3108 3108 3108 3108 3107 3107 3107 3107 3107 3107 3107 3107 3107 3107 3107 3107 3107 3106 3106 3105 3105 3104 3104 3104 3104 3104 3104 3104 3104 3103 3103 3103 3103 3103 3103 3102 3102 3102 3102 3101 3101
3084 3085 3086 3087 3088 3089 3090 3091 3091 3092 3093 3094 3095 3096 3097 3098 3099 3100 3100 3101 3103 3103 3104 3105 3106 3105 3105 3105 3105 3105 3106 3106 3107 3107 3107 3107 3107 3107 3107 3106 3106 3106 3106 3106 3106 3106 3105 3105 3105 3105 3105 3105 3105 3105 3105 3105 3105 3105 3105 3105 3105 3104 3104 3103 3103 3103 3103 3103 3103 3102 3102 3102 3102 3102 3102 3102 3101 3101 3101 3101 3101 3100 3100 3100 3099 3099
3081 3082 3083 3084 3085 3086 3087 3088 3088 3090 3091 3091 3093 3093 3094 3095 3096 3097 3098 3099 3100 3101 3102 3103 3103 3103 3103 3103 3103 3103 3103 3104 3104 3104 3104 3104 3104 3104 3104 3104 3104 3104 3104 3103 3103 3103 3103 3103 3103 3103 3103 3103 3103 3103 3103 3103 3103 3103 3103 3103 3103 3102 3102 3102 3101 3101 3101 3101 3101 3101 3101 3101 3100 3100 3100 3100 3100 3100 3099 3099 3099 3098 3098 3098 3098 3097
3078 3079 3080 3081 3082 3083 3084 3084 3086 3087 3088 3089 3090 3091 3092 3093 3094 3094 3095 3096 3097 3098 3099 3100 3100 3100 3100 3100 3100 3101 3101 3101 3101 3102 3102 3102 3102 3102 3102 3102 3101 3101 3101 3101 3101 3101 3101 3101 3101 3101 3101 3101 3101 3101 3101 3102 3101 3101 3101 3101 3101 3100 3100 3099 3099 3099 3099 3099 3099 3099 3099 3099 3099 3098 3098 3098 3098 3098 3098 3098 3097 3097 3097 3096 3096 3096
3075 3076 3077 3078 3079 3080 3081 3082 3083 3084 3085 3086 3087 3088 3089 3091 3092 3092 3093 3093 3095 3095 3096 3097 3097 3098 3098 3098 3098 3098 3098 3099 3099 3099 3099 3099 3099 3099 3099 3099 3099 3099 3099 3099 3099 3099 3099 3099 3099 3099 3099 3099 3099 3099 3099 3099 3099 3099 3099 3099 3098 3098 3098 3098 3097 3097 3097 3097 3097 3097 3097 3097 3097 3097 3097 3097 3096 3096 3096 3096 3095 3095 3095 3094 3094 3094
3072 3073 3074 3075 3076 3078 3078 3079 3081 3082 3083 3084 3085 3086 3088 3088 3090 3090 3091 3091 3092 3093 3093 3094 3094 3095 3095 3095 3095 3096 3096 3096 3096 3097 3097 3097 3097 3097 3097 3097 3097 3097 3097 3097 3097 3097 3097 3097 3097 3097 3097 3097 3097 3097 3097 3097 3097 3097 3097 3097 3097 3096 3096 3096 3095 3095 3095 3095 3095 3095 3095 3095 3095 3095 3095 3095 3095 3094 3094 3094 3094 3093 3093 3093 3092 3092
3070 3071 3072 3073 3074 3075 3076 3077 3078 3080 3081 3082 3083 3084 3085 3086 3087 3088 3088 3088 3089 3090 3091 3091 3091 3092 3093 3093 3093 3093 3093 3094 3094 3094 3094 3094 3094 3094 3094 3094 3094 3094 3094 3094 3094 3094 3095 3095 3095 3095 3095 3095 3095 3095 3095 3095 3095 3095 3095 3095 3094 3094 3094 3094 3093 3093 3093 3093 3093 3093 3093 3093 3093 3093 3093 3093 3093 3093 3093 3092 3092 3092 3091 3091 3091 3090
3067 3068 3069 3070 3072 3073 3074 3075 3077 3078 3079 3080 3081 3082 3082 3083 3084 3085 3085 3086 3087 3088 3088 3088 3089 3089 3090 3090 3090 3091 3091 3091 3092 3092 3092 3092 3092 3092 3092 3092 3092 3092 3092 3092 3092 3092 3093 3093 3093 3093 3093 3093 3093 3093 3093 3093 3093 3093 3093 3093 3093 3092 3092 3092 3092 3092 3092 3092 3092 3092 3092 3092 3092 3092 3091 3091 3091 3091 3091 3090 3090 3090 3089 3089 3089 3088
3065 3066 3067 3068 3069 3071 3072 3073 3074 3075 3076 3077 3078 3078 3079 3080 3081 3082 3083 3083 3084 3085 3085 3086 3086 3087 3087 3088 3088 3088 3088 3089 3089 3089 3089 3089 3089 3089 3090 3089 3089 3090 3090 3090 3090 3090 3090 3090 3091 3091 3091 3091 3091 3091 3091 3091 3091 3091 3091 3091 3090 3090 3090 3090 3090 3090 3090 3090 3090 3090 3090 3090 3090 3090 3089 3089 3089 3089 3089 3088 3088 3088 3088 3087 3087 3086
3062 3063 3064 3065 3067 3068 3069 3071 3072 3073 3073 3074 3075 3076 3077 3078 3078 3079 3080 3081 3081 3082 3083 3083 3083 3084 3084 3085 3085 3086 3086 3086 3086 3087 3087 3087 3087 3087 3088 3087 3087 3087 3088 3088 3088 3088 3088 3088 3088 3088 3088 3089 3089 3089 3089 3089 3089 3089 3089 3089 3088 3088 3088 3088 3088 3088 3088 3088 3088 3088 3088 3088 3088 3088 3088 3088 3087 3087 3087 3087 3087 3086 3086 3085 3085 3084
3059 3061 3062 3063 3064 3065 3067 3068 3069 3069 3070 3071 3072 3073 3074 3075 3076 3076 3077 3078 3079 3079 3080 3081 3081 3081 3082 3082 3083 3083 3083 3083 3083 3084 3084 3084 3084 3084 3085 3085 3085 3085 3085 3086 3086 3086 3086 3086 3086 3086 3086 3086 3087 3087 3087 3087 3087 3087 3087 3087 3087 3087 3087 3086 3086 3086 3086 3086 3086 3086 3086 3086 3086 3086 3086 3086 3086 3085 3085 3085 3085 3084 3084 3083 3083 3082
3057 3058 3059 3060 3062 3063 3064 3065 3066 3067 3068 3069 3070 3070 3071 3072 3073 3073 3074 3075 3076 3077 3078 3078 3078 3078 3079 3079 3080 3080 3081 3080 3080 3081 3082 3082 3082 3082 3082 3083 3083 3083 3083 3083 3083 3083 3083 3083 3084 3084 3084 3084 3084 3084 3084 3085 3085 3085 3085 3085 3085 3085 3085 3085 3085 3085 3085 3085 3085 3085 3085 3084 3084 3084 3084 3084 3084 3083 3083 3083 3083 3082 3082 3082 3081 3080
3054 3056 3057 3058 3059 3060 3061 3062 3063 3064 3065 3066 3067 3068 3068 3069 3070 3071 3071 3073 3073 3074 3074 3075 3075 3076 3077 3077 3077 3077 3077 3078 3078 3078 3079 3079 3079 3079 3080 3080 3080 3080 3080 3081 3081 3081 3081 3081 3081 3081 3082 3082 3082 3082 3082 3083 3083 3083 3083 3083 3083 3083 3083 3083 3083 3083 3083 3083 3083 3083 3083 3083 3083 3083 3082 3082 3082 3082 3081 3081 3081 3080 3080 3079 3079 3078
3052 3053 3054 3055 3056 3058 3058 3059 3061 3062 3062 3063 3063 3064 3065 3066 3067 3068 3068 3070 3071 3071 3072 3072 3073 3073 3074 3074 3074 3074 3074 3075 3075 3075 3076 3077 3077 3077 3077 3078 3078 3078 3078 3078 3078 3078 3078 3078 3079 3079 3079 3079 3079 3080 3080 3080 3081 3081 3081 3081 3081 3081 3081 3081 3081 3081 3081 3081 3081 3081 3081 3081 3081 3081 3081 3080 3080 3080 3079 3079 3079 3078 3078 3078 3077 3077
3050 3051 3052 3053 3054 3055 3056 3057 3058 3059 3059 3060 3060 3061 3062 3063 3064 3065 3066 3067 3068 3068 3068 3069 3070 3071 3072 3072 3071 3071 3072 3072 3073 3073 3074 3074 3074 3074 3075 3075 3075 3075 3075 3076 3076 3076 3076 3076 3076 3077 3077 3077 3077 3078 3078 3078 3078 3079 3079 3079 3079 3079 3079 3079 3080 3080 3080 3080 3080 3080 3079 3079 3079 3079 3079 3078 3078 3078 3078 3077 3077 3077 3076 3076 3075 3074
3048 3048 3050 3051 3052 3053 3053 3054 3055 3056 3056 3057 3058 3058 3059 3060 3061 3062 3063 3063 3064 3064 3065 3066 3067 3068 3069 3068 3068 3068 3069 3069 3070 3071 3071 3072 3072 3072 3072 3073 3073 3073 3073 3073 3073 3073 3073 3074 3074 3074 3075 3075 3075 3075 3076 3076 3077 3077 3077 3077 3078 3078 3078 3078 3078 3078 3078 3078 3078 3078 3078 3078 3078 3077 3077 3077 3076 3076 3076 3075 3075 3074 3074 3073 3073 3073
3046 3046 3048 3048 3049 3050 3051 3052 3052 3053 3054 3054 3055 3056 3057 3058 3058 3059 3060 3060 3061 3062 3063 3064 3065 3065 3066 3066 3066 3066 3066 3067 3068 3068 3069 3069 3069 3069 3069 3070 3070 3070 3070 3071 3071 3071 3071 3071 3072 3072 3073 3073 3073 3073 3074 3074 3074 3075 3075 3075 3076 3076 3076 3076 3076 3076 3076 3076 3076 3076 3076 3076 3076 3075 3075 3075 3074 3074 3074 3073 3073 3073 3072 3072 3071 3071
3043 3044 3045 3046 3047 3047 3048 3048 3049 3050 3051 3052 3052 3053 3054 3055 3056 3056 3057 3058 3059 3060 3061 3061 3062 3063 3063 3063 3063 3063 3063 3065 3066 3066 3066 3067 3067 3067 3067 3067 3068 3068 3068 3068 3069 3069 3069 3069 3070 3070 3070 3070 3071 3071 3072 3072 3073 3073 3073 3073 3073 3074 3074 3074 3074 3074 3074 3074 3074 3074 3074 3074 3074 3073 3073 3073 3073 3072 3072 3072 3071 3071 3070 3070 3069 3068
3041 3041 3042 3043 3044 3045 3045 3046 3046 3047 3048 3049 3050 3050 3051 3052 3053 3054 3055 3056 3057 3058 3058 3059 3059 3060 3060 3061 3061 3061 3061 3063 3063 3063 3063 3064 3064 3064 3064 3065 3065 3065 3065 3066 3066 3067 3067 3067 3068 3068 3068 3068 3068 3069 3069 3070 3070 3071 3071 3071 3072 3072 3072 3072 3073 3073 3073 3073 3073 3073 3072 3072 3072 3072 3071 3071 3071 3070 3070 3069 3069 3068 3068 3068 3067 3066
3038 3039 3040 3041 3041 3042 3043 3043 3044 3045 3046 3047 3047 3048 3049 3050 3051 3052 3052 3053 3054 3055 3056 3056 3057 3057 3058 3058 3058 3058 3059 3060 3060 3060 3061 3062 3062 3062 3062 3063 3063 3063 3063 3063 3064 3065 3065 3065 3065 3066 3066 3066 3066 3067 3068 3068 3068 3069 3069 3069 3069 3070 3070 3070 3070 3071 3071 3071 3071 3070 3070 3070 3070 3070 3069 3069 3068 3068 3068 3068 3067 3067 3066 3065 3065 3064
3035 3036 3037 3038 3038 3039 3040 3041 3042 3043 3043 3044 3045 3046 3047 3048 3048 3049 3050 3051 3052 3053 3053 3053 3054 3055 3056 3056 3056 3056 3057 3057 3058 3058 3058 3059 3060 3059 3060 3060 3061 3060 3060 3061 3062 3063 3063 3063 3063 3064 3064 3064 3064 3065 3065 3066 3066 3067 3067 3067 3068 3068 3068 3068 3068 3068 3068 3068 3068 3068 3068 3068 3068 3068 3067 3067 3067 3066 3066 3065 3065 3064 3064 3063 3063 3062
3032 3033 3034 3035 3036 3037 3038 3038 3039 3040 3041 3042 3042 3043 3044 3045 3046 3047 3047 3048 3049 3050 3050 3051 3052 3053 3053 3053 3053 3053 3054 3055 3055 3055 3057 3057 3057 3057 3058 3058 3058 3058 3058 3059 3059 3060 3061 3061 3062 3062 3062 3062 3063 3063 3063 3063 3064 3064 3065 3065 3065 3065 3066 3066 3066 3066 3066 3066 3066 3066 3066 3066 3066 3065 3065 3065 3064 3064 3063 3063 3063 3062 3062 3061 3060 3060
3028 3030 3031 3032 3033 3033 3034 3035 3036 3037 3038 3039 3039 3040 3041 3042 3043 3043 3044 3045 3046 3047 3047 3048 3048 3050 3050 3050 3051 3051 3052 3052 3053 3053 3054 3055 3055 3055 3056 3056 3056 3055 3056 3057 3057 3058 3058 3059 3060 3060 3060 3060 3060 3061 3061 3061 3062 3062 3062 3063 3063 3063 3063 3063 3064 3064 3064 3064 3064 3064 3064 3064 3063 3063 3063 3063 3062 3062 3061 3061 3060 3060 3059 3059 3058 3057
3025 3026 3028 3028 3029 3030 3031 3032 3033 3034 3035 3036 3037 3037 3038 3039 3040 3040 3041 3042 3043 3043 3044 3045 3046 3047 3047 3048 3048 3049 3049 3050 3051 3052 3052 3052 3052 3053 3054 3054 3053 3053 3054 3055 3055 3055 3056 3057 3058 3058 3058 3058 3058 3058 3059 3059 3059 3059 3060 3060 3060 3060 3061 3061 3061 3061 3061 3062 3062 3062 3062 3061 3061 3061 3061 3060 3060 3059 3059 3059 3058 3058 3057 3057 3056 3055
3022 3023 3024 3025 3026 3027 3028 3029 3030 3031 3032 3033 3033 3034 3035 3036 3037 3037 3038 3038 3039 3040 3041 3042 3043 3044 3045 3045 3046 3047 3047 3048 3048 3049 3050 3050 3049 3050 3052 3052 3051 3051 3052 3053 3053 3053 3053 3054 3055 3055 3055 3055 3055 3056 3056 3057 3057 3057 3057 3057 3058 3058 3058 3059 3059 3059 3059 3059 3059 3059 3059 3059 3059 3058 3058 3058 3058 3057 3057 3056 3056 3055 3055 3054 3053 3053
3019 3020 3021 3022 3023 3023 3025 3025 3026 3027 3028 3029 3030 3031 3032 3033 3033 3034 3035 3035 3036 3037 3038 3039 3040 3041 3042 3043 3044 3044 3045 3045 3046 3047 3047 3047 3047 3048 3049 3050 3049 3049 3049 3050 3051 3051 3052 3052 3052 3053 3053 3053 3053 3053 3053 3054 3054 3054 3054 3055 3055 3055 3056 3056 3056 3056 3057 3057 3057 3057 3057 3057 3056 3056 3056 3055 3055 3055 3054 3053 3053 3053 3052 3052 3051 3050
3015 3017 3017 3018 3019 3020 3021 3022 3023 3024 3025 3026 3027 3028 3029 3030 3030 3031 3032 3033 3034 3035 3036 3037 3038 3039 3040 3041 3042 3042 3043 3043 3043 3044 3045 3045 3045 3045 3047 3047 3047 3047 3048 3048 3049 3049 3049 3050 3050 3050 3050 3050 3050 3050 3051 3051 3051 3052 3052 3052 3053 3053 3053 3053 3054 3054 3054 3054 3054 3054 3054 3054 3054 3053 3053 3053 3053 3052 3052 3051 3050 3050 3049 3049 3048 3048
3012 3013 3014 3015 3016 3017 3018 3019 3020 3021 3022 3023 3023 3024 3025 3026 3027 3028 3029 3030 3031 3032 3033 3034 3036 3037 3038 3038 3039 3040 3040 3040 3041 3042 3042 3042 3043 3043 3044 3045 3045 3045 3046 3046 3047 3047 3048 3047 3048 3048 3048 3048 3048 3048 3048 3048 3049 3049 3049 3050 3050 3050 3051 3051 3051 3052 3052 3052 3052 3052 3052 3051 3051 3051 3050 3050 3050 3049 3048 3048 3048 3047 3046 3046 3045 3044
3009 3010 3011 3012 3013 3014 3015 3015 3016 3018 3018 3019 3020 3021 3023 3023 3025 3026 3027 3028 3029 3030 3031 3032 3033 3034 3035 3037 3038 3038 3038 3038 3038 3039 3040 3040 3040 3041 3042 3043 3043 3043 3044 3044 3044 3045 3045 3045 3045 3045 3046 3045 3045 3045 3046 3046 3046 3046 3047 3047 3048 3048 3048 3048 3049 3049 3049 3049 3049 3049 3048 3048 3048 3048 3047 3047 3047 3046 3045 3045 3044 3043 3043 3042 3041 3040
3006 3007 3007 3008 3009 3011 3012 3013 3013 3014 3016 3017 3018 3019 3020 3021 3022 3023 3024 3026 3027 3028 3029 3030 3031 3032 3033 3034 3035 3036 3036 3036 3036 3037 3037 3038 3038 3039 3040 3040 3041 3042 3042 3042 3042 3043 3043 3043 3043 3043 3043 3043 3043 3043 3043 3043 3044 3044 3044 3044 3045 3045 3045 3046 3046 3046 3046 3046 3046 3046 3045 3045 3045 3044 3044 3043 3043 3043 3042 3041 3041 3040 3039 3038 3037 3036
3003 3003 3004 3005 3007 3008 3009 3010 3011 3012 3013 3014 3015 3017 3018 3019 3020 3021 3022 3023 3025 3026 3027 3028 3029 3030 3031 3032 3033 3033 3034 3034 3034 3035 3035 3035 3036 3037 3038 3038 3039 3039 3040 3040 3040 3040 3041 3041 3041 3041 3041 3041 3041 3041 3041 3041 3041 3041 3041 3042 3042 3042 3042 3043 3043 3043 3043 3043 3043 3042 3042 3042 3042 3041 3041 3040 3040 3039 3039 3038 3037 3037 3036 3035 3034 3033
2999 3000 3001 3003 3004 3005 3006 3007 3008 3010 3011 3012 3013 3014 3016 3017 3018 3019 3020 3021 3022 3023 3024 3025 3027 3028 3028 3030 3031 3031 3032 3032 3032 3033 3033 3033 3034 3035 3035 3036 3037 3037 3038 3038 3038 3038 3038 3038 3038 3038 3038 3038 3038 3039 3039 3039 3039 3039 3039 3039 3039 3039 3040 3040 3040 3039 3039 3040 3039 3039 3039 3039 3038 3038 3038 3038 3037 3037 3036 3035 3034 3034 3033 3032 3031 3029
2996 2997 2998 3000 3001 3003 3004 3005 3006 3008 3009 3010 3011 3013 3013 3015 3016 3017 3018 3019 3020 3021 3022 3023 3024 3025 3026 3027 3028 3029 3030 3030 3030 3031 3031 3032 3032 3033 3033 3034 3034 3035 3035 3035 3035 3036 3036 3036 3036 3036 3036 3036 3036 3037 3037 3037 3037 3037 3037 3037 3037 3037 3038 3038 3037 3037 3037 3037 3037 3037 3037 3036 3036 3036 3036 3035 3035 3034 3034 3033 3032 3031 3030 3029 3028 3027
2994 2995 2996 2997 2998 3000 3001 3003 3004 3005 3007 3008 3009 3010 3011 3012 3013 3014 3016 3017 3018 3019 3020 3021 3022 3023 3024 3025 3026 3027 3028 3028 3028 3029 3029 3029 3030 3030 3031 3031 3032 3032 3033 3033 3033 3033 3033 3033 3034 3034 3034 3034 3034 3034 3034 3035 3035 3035 3035 3035 3035 3035 3035 3035 3035 3035 3035 3035 3035 3035 3035 3034 3034 3034 3033 3033 3033 3032 3032 3031 3030 3029 3028 3027 3026 3025
2992 2993 2994 2995 2996 2998 2999 3000 3002 3003 3004 3005 3006 3008 3008 3010 3011 3012 3013 3015 3016 3017 3018 3019 3020 3021 3022 3023 3024 3025 3025 3026 3026 3027 3027 3027 3027 3028 3028 3029 3029 3030 3030 3031 3031 3031 3031 3031 3031 3031 3032 3032 3032 3033 3032 3033 3033 3033 3033 3033 3033 3033 3033 3033 3033 3033 3033 3033 3033 3033 3033 3033 3032 3032 3032 3031 3031 3030 3029 3029 3028 3027 3025 3024 3023 3022
2991 2991 2992 2993 2994 2996 2997 2998 2999 3000 3002 3003 3004 3005 3006 3008 3009 3010 3011 3013 3013 3015 3016 3017 3018 3019 3019 3020 3022 3023 3023 3024 3024 3024 3024 3025 3025 3025 3026 3026 3027 3027 3028 3028 3028 3028 3028 3029 3029 3029 3029 3030 3030 3030 3030 3030 3030 3031 3031 3031 3031 3032 3031 3031 3031 3031 3031 3031 3031 3031 3031 3031 3030 3030 3030 3029 3029 3028 3027 3026 3025 3024 3023 3022 3021 3020
2989 2990 2991 2992 2993 2994 2995 2996 2997 2998 2999 3001 3002 3003 3004 3006 3007 3008 3009 3010 3012 3013 3014 3015 3016 3017 3017 3018 3019 3020 3021 3021 3022 3022 3022 3022 3023 3023 3023 3024 3024 3025 3025 3026 3026 3026 3026 3027 3027 3027 3027 3028 3028 3028 3028 3028 3028 3028 3029 3029 3029 3029 3029 3029 3029 3029 3029 3029 3029 3029 3029 3028 3028 3028 3028 3028 3027 3026 3025 3024 3023 3022 3021 3020 3019 3018
2987 2988 2989 2990 2991 2992 2993 2994 2995 2996 2997 2998 3000 3001 3002 3003 3005 3006 3008 3008 3010 3011 3012 3013 3014 3015 3015 3016 3017 3018 3018 3019 3019 3019 3019 3020 3020 3021 3021 3021 3022 3022 3023 3023 3023 3023 3024 3024 3024 3025 3025 3026 3026 3026 3026 3026 3027 3027 3027 3027 3027 3027 3027 3027 3027 3027 3027 3027 3027 3027 3027 3027 3026 3026 3026 3026 3025 3024 3023 3022 3021 3019 3018 3017 3016 3015
2985 2986 2987 2988 2989 2990 2991 2992 2993 2994 2995 2997 2998 2999 3000 3002 3003 3004 3006 3007 3008 3009 3010 3011 3012 3013 3013 3014 3014 3015 3016 3016 3016 3017 3017 3017 3018 3018 3018 3019 3019 3020 3020 3021 3021 3021 3022 3022 3022 3023 3023 3024 3024 3024 3024 3024 3024 3024 3024 3025 3025 3025 3025 3025 3025 3025 3025 3025 3024 3024 3024 3024 3024 3024 3024 3023 3023 3022 3021 3019 3018 3017 3016 3015 3014 3013
2983 2984 2985 2986 2988 2988 2989 2990 2992 2993 2993 2995 2996 2997 2998 3000 3001 3003 3004 3005 3006 3007 3008 3009 3010 3010 3011 3012 3012 3013 3013 3013 3013 3014 3014 3015 3015 3016 3016 3017 3017 3018 3018 3018 3019 3019 3019 3020 3020 3021 3021 3022 3022 3022 3022 3022 3023 3023 3023 3023 3023 3023 3023 3022 3022 3022 3022 3022 3022 3022 3022 3022 3022 3021 3021 3021 3020 3019 3018 3017 3016 3014 3013 3013 3012 3010
2981 2982 2983 2985 2986 2987 2988 2989 2990 2991 2992 2993 2994 2995 2997 2998 2999 3001 3002 3003 3004 3005 3006 3007 3008 3008 3008 3009 3010 3010 3010 3011 3011 3011 3012 3012 3013 3013 3014 3014 3015 3016 3016 3016 3017 3017 3018 3018 3018 3019 3019 3019 3020 3020 3020 3020 3020 3020 3020 3020 3020 3020 3020 3020 3020 3020 3020 3020 3020 3020 3019 3019 3019 3019 3018 3018 3018 3017 3016 3015 3013 3012 3011 3010 3009 3008
2979 2980 2981 2983 2984 2985 2986 2987 2988 2989 2990 2991 2993 2994 2995 2996 2998 2999 3000 3001 3002 3003 3004 3004 3005 3006 3006 3007 3007 3008 3008 3008 3008 3009 3009 3010 3011 3011 3012 3013 3013 3013 3014 3014 3015 3015 3016 3016 3016 3017 3017 3017 3018 3018 3018 3018 3018 3018 3018 3018 3018 3018 3018 3018 3018 3018 3018 3018 3017 3017 3017 3017 3016 3016 3016 3015 3015 3014 3014 3013 3011 3009 3008 3007 3006 3005
2977 2978 2979 2980 2981 2983 2984 2985 2986 2988 2988 2990 2991 2992 2993 2995 2996 2997 2998 2999 3000 3001 3002 3002 3003 3003 3004 3004 3005 3005 3006 3006 3007 3007 3007 3008 3008 3009 3010 3011 3011 3012 3012 3013 3013 3013 3014 3014 3014 3015 3015 3015 3015 3016 3016 3016 3016 3016 3016 3016 3016 3016 3016 3015 3015 3015 3015 3015 3015 3014 3014 3014 3013 3013 3013 3012 3012 3012 3011 3010 3009 3007 3006 3005 3004 3003
2975 2976 2977 2978 2979 2980 2982 2983 2984 2986 2987 2988 2989 2990 2992 2993 2994 2995 2996 2997 2998 2998 2999 3000 3001 3001 3002 3002 3003 3003 3003 3004 3004 3005 3005 3006 3006 3007 3008 3008 3009 3010 3010 3011 3011 3011 3012 3012 3012 3013 3013 3013 3013 3013 3013 3014 3014 3014 3014 3013 3013 3013 3013 3013 3013 3013 3013 3013 3012 3012 3011 3011 3011 3010 3010 3009 3009 3009 3008 3008 3006 3005 3003 3002 3001 3000